| time (UTC) | temp F | wind direction | speed MPH | gust MPH | rain 1hr in | rain 24hr in | rain mn in | humidity % | barometer mb |
| 20260508064040 | 51 | 236 | 5.0 | 7.0 | 0.00 | 0.00 | 0.00 | 62 | 1018.4 |
| 20260508063319 | 49 | 236 | 4.0 | 7.0 | 0.00 | 0.00 | 0.00 | 65 | 1018.4 |
| 20260508062547 | 47 | 236 | 3.0 | 4.0 | 0.00 | 0.00 | 0.00 | 67 | 1018.6 |
| 20260508062245 | 48 | 236 | 2.0 | 4.0 | 0.00 | 0.00 | 0.00 | 66 | 1018.5 |
| 20260508061933 | 48 | 236 | 2.0 | 4.0 | 0.00 | 0.00 | 0.00 | 65 | 1018.4 |
| 20260508061620 | 48 | 236 | 2.0 | 5.0 | 0.00 | 0.00 | 0.00 | 64 | 1018.5 |
| 20260508061317 | 49 | 236 | 3.0 | 5.0 | 0.00 | 0.00 | 0.00 | 63 | 1018.6 |
| 20260508061010 | 49 | 236 | 3.0 | 5.0 | 0.00 | 0.00 | 0.00 | 62 | 1018.6 |
| 20260508060708 | 50 | 236 | 4.0 | 5.0 | 0.00 | 0.00 | 0.00 | 61 | 1018.7 |
| 20260508055046 | 50 | 236 | 6.0 | 9.0 | 0.00 | 0.00 | 0.00 | 61 | 1018.7 |
| 20260508054739 | 50 | 236 | 6.0 | 9.0 | 0.00 | 0.00 | 0.00 | 62 | 1018.9 |
| 20260508054004 | 49 | 236 | 5.0 | 7.0 | 0.00 | 0.00 | 0.00 | 62 | 1018.8 |
| 20260508053708 | 49 | 236 | 5.0 | 7.0 | 0.00 | 0.00 | 0.00 | 62 | 1018.8 |
| 20260508053401 | 50 | 236 | 5.0 | 7.0 | 0.00 | 0.00 | 0.00 | 62 | 1018.8 |
| 20260508053052 | 50 | 236 | 5.0 | 7.0 | 0.00 | 0.00 | 0.00 | 61 | 1018.7 |
| 20260508052752 | 50 | 236 | 5.0 | 7.0 | 0.00 | 0.00 | 0.00 | 61 | 1018.8 |
| 20260508052454 | 50 | 236 | 5.0 | 7.0 | 0.00 | 0.00 | 0.00 | 61 | 1018.9 |
| 20260508052149 | 50 | 236 | 5.0 | 7.0 | 0.00 | 0.00 | 0.00 | 62 | 1018.9 |
| 20260508051846 | 50 | 236 | 5.0 | 7.0 | 0.00 | 0.00 | 0.00 | 62 | 1018.9 |
| 20260508051549 | 50 | 236 | 5.0 | 7.0 | 0.00 | 0.00 | 0.00 | 62 | 1018.9 |
| 20260508051247 | 49 | 236 | 5.0 | 7.0 | 0.00 | 0.00 | 0.00 | 63 | 1018.9 |
| 20260508050512 | 49 | 236 | 4.0 | 7.0 | 0.00 | 0.00 | 0.00 | 63 | 1018.9 |
| 20260508045800 | 49 | 236 | 4.0 | 6.0 | 0.00 | 0.00 | 0.00 | 63 | 1018.9 |
| 20260508045449 | 49 | 236 | 5.0 | 6.0 | 0.00 | 0.00 | 0.00 | 63 | 1018.9 |
| 20260508045139 | 49 | 236 | 5.0 | 6.0 | 0.00 | 0.00 | 0.00 | 64 | 1018.9 |
| 20260508044838 | 49 | 236 | 5.0 | 6.0 | 0.00 | 0.00 | 0.00 | 64 | 1018.9 |
| 20260508044540 | 49 | 236 | 5.0 | 6.0 | 0.00 | 0.00 | 0.00 | 64 | 1018.9 |
| 20260508044234 | 49 | 236 | 5.0 | 6.0 | 0.00 | 0.00 | 0.00 | 63 | 1018.9 |
| 20260508043924 | 50 | 236 | 5.0 | 6.0 | 0.00 | 0.00 | 0.00 | 62 | 1019.1 |
| 20260508043201 | 51 | 236 | 5.0 | 7.0 | 0.00 | 0.00 | 0.00 | 61 | 1019.0 |
| 20260508042439 | 51 | 236 | 5.0 | 7.0 | 0.00 | 0.00 | 0.00 | 59 | 1019.1 |
| 20260508041243 | 51 | 236 | 6.0 | 8.0 | 0.00 | 0.00 | 0.00 | 59 | 1019.4 |
| 20260508040941 | 51 | 236 | 6.0 | 8.0 | 0.00 | 0.00 | 0.00 | 60 | 1019.5 |
| 20260508040643 | 51 | 236 | 6.0 | 8.0 | 0.00 | 0.00 | 0.00 | 61 | 1019.5 |
| 20260508040345 | 51 | 236 | 5.0 | 7.0 | 0.00 | 0.00 | 0.00 | 62 | 1019.5 |
| 20260508035620 | 51 | 236 | 4.0 | 6.0 | 0.00 | 0.00 | 0.00 | 63 | 1019.6 |
| 20260508035323 | 51 | 236 | 4.0 | 5.0 | 0.00 | 0.00 | 0.00 | 63 | 1019.6 |
| 20260508035019 | 51 | 236 | 4.0 | 5.0 | 0.00 | 0.00 | 0.00 | 62 | 1019.7 |
| 20260508034250 | 51 | 236 | 4.0 | 6.0 | 0.00 | 0.00 | 0.00 | 61 | 1019.7 |
| 20260508033950 | 51 | 236 | 4.0 | 6.0 | 0.00 | 0.00 | 0.00 | 60 | 1019.7 |
| 20260508033641 | 52 | 236 | 4.0 | 6.0 | 0.00 | 0.00 | 0.00 | 60 | 1019.7 |
| 20260508033344 | 52 | 236 | 4.0 | 6.0 | 0.00 | 0.00 | 0.00 | 59 | 1019.7 |
| 20260508032628 | 53 | 236 | 4.0 | 6.0 | 0.00 | 0.00 | 0.00 | 57 | 1019.7 |
| 20260508032315 | 53 | 236 | 4.0 | 6.0 | 0.00 | 0.00 | 0.00 | 56 | 1019.7 |
| 20260508031544 | 54 | 236 | 4.0 | 7.0 | 0.00 | 0.00 | 0.00 | 54 | 1019.7 |
| 20260508031235 | 54 | 236 | 5.0 | 7.0 | 0.00 | 0.00 | 0.00 | 54 | 1019.7 |
| 20260508030932 | 54 | 236 | 5.0 | 7.0 | 0.00 | 0.00 | 0.00 | 54 | 1019.7 |
| 20260508030205 | 54 | 236 | 5.0 | 6.0 | 0.00 | 0.00 | 0.00 | 55 | 1019.6 |
| 20260508025858 | 54 | 236 | 5.0 | 6.0 | 0.00 | 0.00 | 0.00 | 55 | 1019.6 |
| 20260508025600 | 54 | 236 | 5.0 | 6.0 | 0.00 | 0.00 | 0.00 | 55 | 1019.6 |
| 20260508025247 | 54 | 236 | 5.0 | 6.0 | 0.00 | 0.00 | 0.00 | 55 | 1019.5 |
| 20260508024951 | 54 | 236 | 5.0 | 6.0 | 0.00 | 0.00 | 0.00 | 55 | 1019.5 |
| 20260508024642 | 54 | 236 | 5.0 | 6.0 | 0.00 | 0.00 | 0.00 | 55 | 1019.5 |
| 20260508024338 | 54 | 236 | 5.0 | 6.0 | 0.00 | 0.00 | 0.00 | 55 | 1019.5 |
| 20260508024036 | 54 | 236 | 5.0 | 6.0 | 0.00 | 0.00 | 0.00 | 55 | 1019.5 |
| 20260508023739 | 55 | 236 | 5.0 | 6.0 | 0.00 | 0.00 | 0.00 | 55 | 1019.5 |
| 20260508023425 | 55 | 236 | 5.0 | 6.0 | 0.00 | 0.00 | 0.00 | 55 | 1019.5 |
| 20260508022703 | 55 | 236 | 4.0 | 6.0 | 0.00 | 0.00 | 0.00 | 55 | 1019.4 |
| 20260508022401 | 55 | 236 | 5.0 | 6.0 | 0.00 | 0.00 | 0.00 | 54 | 1019.4 |
| 20260508022054 | 56 | 236 | 5.0 | 6.0 | 0.00 | 0.00 | 0.00 | 54 | 1019.5 |
| 20260508021744 | 56 | 236 | 5.0 | 6.0 | 0.00 | 0.00 | 0.00 | 54 | 1019.4 |
| 20260508021431 | 56 | 236 | 5.0 | 6.0 | 0.00 | 0.00 | 0.00 | 54 | 1019.5 |
| 20260508021127 | 56 | 236 | 5.0 | 6.0 | 0.00 | 0.00 | 0.00 | 53 | 1019.5 |
| 20260508020826 | 57 | 236 | 5.0 | 6.0 | 0.00 | 0.00 | 0.00 | 53 | 1019.4 |
| 20260508020516 | 57 | 236 | 4.0 | 6.0 | 0.00 | 0.00 | 0.00 | 52 | 1019.5 |
| 20260508015743 | 59 | 236 | 4.0 | 5.0 | 0.00 | 0.00 | 0.00 | 49 | 1019.4 |
| 20260508015438 | 59 | 236 | 4.0 | 5.0 | 0.00 | 0.00 | 0.00 | 48 | 1019.4 |
| 20260508015124 | 60 | 236 | 4.0 | 5.0 | 0.00 | 0.00 | 0.00 | 47 | 1019.4 |
| 20260508014358 | 61 | 236 | 4.0 | 5.0 | 0.00 | 0.00 | 0.00 | 45 | 1019.4 |
| 20260508014055 | 62 | 236 | 4.0 | 5.0 | 0.00 | 0.00 | 0.00 | 44 | 1019.4 |
| 20260508013750 | 62 | 236 | 4.0 | 5.0 | 0.00 | 0.00 | 0.00 | 42 | 1019.4 |
| 20260508013439 | 63 | 236 | 4.0 | 5.0 | 0.00 | 0.00 | 0.00 | 41 | 1019.2 |
| 20260508013126 | 64 | 236 | 4.0 | 5.0 | 0.00 | 0.00 | 0.00 | 39 | 1019.3 |
| 20260508012816 | 65 | 236 | 4.0 | 5.0 | 0.00 | 0.00 | 0.00 | 38 | 1019.3 |
| 20260508012045 | 67 | 236 | 4.0 | 5.0 | 0.00 | 0.00 | 0.00 | 35 | 1019.4 |
| 20260508011748 | 68 | 236 | 4.0 | 6.0 | 0.00 | 0.00 | 0.00 | 34 | 1019.4 |
| 20260508011447 | 69 | 236 | 4.0 | 6.0 | 0.00 | 0.00 | 0.00 | 34 | 1019.4 |
| 20260508011135 | 70 | 236 | 4.0 | 6.0 | 0.00 | 0.00 | 0.00 | 32 | 1019.4 |
| 20260508010825 | 70 | 236 | 4.0 | 6.0 | 0.00 | 0.00 | 0.00 | 31 | 1019.4 |
| 20260508010523 | 71 | 236 | 4.0 | 9.0 | 0.00 | 0.00 | 0.00 | 30 | 1019.3 |
| 20260508010219 | 71 | 236 | 5.0 | 9.0 | 0.00 | 0.00 | 0.00 | 30 | 1019.4 |
| 20260508005921 | 72 | 236 | 6.0 | 9.0 | 0.00 | 0.00 | 0.00 | 29 | 1019.4 |
| 20260508005619 | 72 | 236 | 6.0 | 10.0 | 0.00 | 0.00 | 0.00 | 28 | 1019.3 |
| 20260508005309 | 72 | 236 | 7.0 | 10.0 | 0.00 | 0.00 | 0.00 | 27 | 1019.2 |
| 20260508004542 | 73 | 236 | 7.0 | 12.0 | 0.00 | 0.00 | 0.00 | 26 | 1019.4 |
| 20260508004239 | 73 | 236 | 7.0 | 12.0 | 0.00 | 0.00 | 0.00 | 26 | 1019.4 |
| 20260508003522 | 74 | 236 | 9.0 | 12.0 | 0.00 | 0.00 | 0.00 | 24 | 1019.4 |
| 20260508003213 | 74 | 238 | 8.0 | 12.0 | 0.00 | 0.00 | 0.00 | 24 | 1019.5 |
| 20260508002908 | 74 | 239 | 7.0 | 12.0 | 0.00 | 0.00 | 0.00 | 23 | 1019.5 |
| 20260508002605 | 74 | 250 | 7.0 | 10.0 | 0.00 | 0.00 | 0.00 | 23 | 1019.6 |
| 20260508001355 | 75 | 250 | 6.0 | 11.0 | 0.00 | 0.00 | 0.00 | 22 | 1019.7 |
| 20260508000624 | 75 | 250 | 8.0 | 12.0 | 0.00 | 0.00 | 0.00 | 23 | 1019.7 |
| 20260508000317 | 75 | 250 | 8.0 | 12.0 | 0.00 | 0.00 | 0.00 | 23 | 1019.7 |
| 20260508000018 | 75 | 248 | 8.0 | 13.0 | 0.00 | 0.00 | 0.00 | 23 | 1019.8 |
| 20260507235705 | 75 | 248 | 8.0 | 13.0 | 0.00 | 0.00 | 0.00 | 24 | 1019.8 |
| 20260507235409 | 75 | 245 | 8.0 | 13.0 | 0.00 | 0.00 | 0.00 | 24 | 1019.9 |
| 20260507234204 | 75 | 249 | 7.0 | 12.0 | 0.00 | 0.00 | 0.00 | 22 | 1020.0 |
| 20260507233853 | 76 | 252 | 7.0 | 12.0 | 0.00 | 0.00 | 0.00 | 24 | 1020.0 |
| 20260507233544 | 76 | 252 | 7.0 | 12.0 | 0.00 | 0.00 | 0.00 | 22 | 1020.0 |
| 20260507233244 | 76 | 255 | 7.0 | 12.0 | 0.00 | 0.00 | 0.00 | 23 | 1020.0 |
| 20260507232941 | 76 | 255 | 9.0 | 15.0 | 0.00 | 0.00 | 0.00 | 23 | 1020.1 |
| 20260507232221 | 76 | 261 | 6.0 | 15.0 | 0.00 | 0.00 | 0.00 | 22 | 1020.0 |
| 20260507231922 | 76 | 261 | 5.0 | 15.0 | 0.00 | 0.00 | 0.00 | 23 | 1020.1 |
| 20260507231615 | 76 | 261 | 6.0 | 15.0 | 0.00 | 0.00 | 0.00 | 21 | 1020.0 |
| 20260507231316 | 76 | 259 | 7.0 | 15.0 | 0.00 | 0.00 | 0.00 | 22 | 1020.1 |
| 20260507231016 | 76 | 259 | 8.0 | 17.0 | 0.00 | 0.00 | 0.00 | 22 | 1020.2 |
| 20260507230709 | 76 | 259 | 9.0 | 17.0 | 0.00 | 0.00 | 0.00 | 21 | 1020.3 |
| 20260507230411 | 77 | 259 | 9.0 | 17.0 | 0.00 | 0.00 | 0.00 | 21 | 1020.2 |
| 20260507230114 | 76 | 261 | 8.0 | 17.0 | 0.00 | 0.00 | 0.00 | 22 | 1020.2 |
| 20260507225355 | 76 | 269 | 7.0 | 17.0 | 0.00 | 0.01 | 0.00 | 22 | 1020.3 |
| 20260507225041 | 76 | 270 | 6.0 | 11.0 | 0.00 | 0.01 | 0.00 | 22 | 1020.3 |
| 20260507224723 | 77 | 270 | 7.0 | 15.0 | 0.00 | 0.01 | 0.00 | 23 | 1020.3 |
| 20260507224417 | 76 | 279 | 8.0 | 15.0 | 0.00 | 0.01 | 0.00 | 21 | 1020.4 |
| 20260507224104 | 76 | 279 | 9.0 | 15.0 | 0.00 | 0.01 | 0.00 | 20 | 1020.5 |
| 20260507223802 | 77 | 280 | 8.0 | 17.0 | 0.00 | 0.01 | 0.00 | 21 | 1020.6 |
| 20260507223456 | 77 | 275 | 7.0 | 17.0 | 0.00 | 0.02 | 0.00 | 23 | 1020.5 |
| 20260507223148 | 77 | 267 | 6.0 | 17.0 | 0.00 | 0.02 | 0.00 | 21 | 1020.6 |
| 20260507222841 | 76 | 266 | 8.0 | 17.0 | 0.00 | 0.02 | 0.00 | 21 | 1020.7 |
| 20260507222542 | 76 | 269 | 8.0 | 17.0 | 0.00 | 0.03 | 0.00 | 20 | 1020.8 |
| 20260507222244 | 76 | 269 | 9.0 | 17.0 | 0.00 | 0.03 | 0.00 | 20 | 1020.9 |
| 20260507221940 | 77 | 273 | 9.0 | 17.0 | 0.00 | 0.03 | 0.00 | 21 | 1020.9 |
| 20260507221635 | 76 | 273 | 10.0 | 15.0 | 0.00 | 0.03 | 0.00 | 21 | 1021.0 |
| 20260507221337 | 76 | 284 | 9.0 | 15.0 | 0.00 | 0.03 | 0.00 | 21 | 1021.1 |
| 20260507221025 | 76 | 290 | 9.0 | 15.0 | 0.00 | 0.03 | 0.00 | 21 | 1021.1 |
| 20260507220724 | 76 | 288 | 8.0 | 15.0 | 0.00 | 0.04 | 0.00 | 22 | 1021.1 |
| 20260507220412 | 76 | 274 | 9.0 | 15.0 | 0.00 | 0.04 | 0.00 | 21 | 1021.2 |
| 20260507215751 | 76 | 240 | 8.0 | 15.0 | 0.00 | 0.04 | 0.00 | 21 | 1021.3 |
| 20260507215453 | 76 | 246 | 8.0 | 21.0 | 0.00 | 0.04 | 0.00 | 21 | 1021.3 |
| 20260507214302 | 76 | 277 | 9.0 | 21.0 | 0.00 | 0.04 | 0.00 | 22 | 1021.6 |
| 20260507213956 | 76 | 260 | 8.0 | 21.0 | 0.00 | 0.04 | 0.00 | 22 | 1021.6 |
| 20260507213649 | 76 | 269 | 7.0 | 21.0 | 0.00 | 0.04 | 0.00 | 21 | 1021.6 |
| 20260507213344 | 76 | 272 | 7.0 | 17.0 | 0.00 | 0.04 | 0.00 | 21 | 1021.7 |
| 20260507213044 | 76 | 306 | 7.0 | 17.0 | 0.00 | 0.04 | 0.00 | 20 | 1021.7 |
| 20260507212742 | 76 | 306 | 7.0 | 17.0 | 0.00 | 0.04 | 0.00 | 22 | 1021.8 |
| 20260507212443 | 76 | 307 | 7.0 | 17.0 | 0.00 | 0.04 | 0.00 | 23 | 1021.8 |
| 20260507211718 | 76 | 282 | 9.0 | 17.0 | 0.00 | 0.04 | 0.00 | 20 | 1022.1 |
| 20260507211422 | 76 | 288 | 8.0 | 17.0 | 0.00 | 0.04 | 0.00 | 21 | 1022.0 |
| 20260507211123 | 76 | 283 | 7.0 | 14.0 | 0.00 | 0.04 | 0.00 | 24 | 1022.1 |
| 20260507210817 | 76 | 287 | 7.0 | 14.0 | 0.00 | 0.04 | 0.00 | 22 | 1022.2 |
| 20260507210056 | 77 | 273 | 7.0 | 21.0 | 0.00 | 0.04 | 0.00 | 22 | 1022.2 |
| 20260507205753 | 76 | 287 | 8.0 | 21.0 | 0.00 | 0.04 | 0.00 | 24 | 1022.3 |
| 20260507205455 | 75 | 281 | 10.0 | 21.0 | 0.00 | 0.04 | 0.00 | 23 | 1022.3 |
| 20260507205145 | 75 | 276 | 11.0 | 21.0 | 0.00 | 0.04 | 0.00 | 22 | 1022.5 |
| 20260507204424 | 75 | 253 | 8.0 | 21.0 | 0.00 | 0.04 | 0.00 | 24 | 1022.5 |
| 20260507204117 | 75 | 271 | 7.0 | 18.0 | 0.00 | 0.04 | 0.00 | 25 | 1022.6 |
| 20260507203347 | 75 | 265 | 11.0 | 18.0 | 0.00 | 0.04 | 0.00 | 23 | 1022.9 |
| 20260507203045 | 75 | 292 | 10.0 | 19.0 | 0.00 | 0.04 | 0.00 | 23 | 1022.9 |
| 20260507202740 | 76 | 306 | 9.0 | 19.0 | 0.00 | 0.04 | 0.00 | 24 | 1022.9 |
| 20260507202439 | 75 | 277 | 10.0 | 19.0 | 0.00 | 0.04 | 0.00 | 24 | 1022.9 |
| 20260507202133 | 75 | 274 | 11.0 | 19.0 | 0.00 | 0.04 | 0.00 | 24 | 1023.0 |
| 20260507201821 | 75 | 289 | 10.0 | 19.0 | 0.00 | 0.05 | 0.00 | 24 | 1023.2 |
| 20260507201048 | 74 | 268 | 8.0 | 14.0 | 0.00 | 0.05 | 0.00 | 25 | 1023.5 |
| 20260507200750 | 74 | 268 | 10.0 | 14.0 | 0.00 | 0.05 | 0.00 | 25 | 1023.7 |
| 20260507200453 | 74 | 267 | 10.0 | 15.0 | 0.00 | 0.05 | 0.00 | 24 | 1023.8 |
| 20260507200141 | 75 | 277 | 10.0 | 15.0 | 0.00 | 0.05 | 0.00 | 25 | 1023.6 |
| 20260507195829 | 75 | 277 | 9.0 | 15.0 | 0.00 | 0.05 | 0.00 | 25 | 1023.8 |
| 20260507195101 | 74 | 303 | 9.0 | 19.0 | 0.00 | 0.05 | 0.00 | 25 | 1023.9 |
| 20260507193922 | 74 | 269 | 10.0 | 19.0 | 0.00 | 0.05 | 0.00 | 25 | 1024.0 |
| 20260507193617 | 74 | 269 | 9.0 | 19.0 | 0.00 | 0.05 | 0.00 | 26 | 1024.0 |
| 20260507193308 | 74 | 262 | 9.0 | 15.0 | 0.00 | 0.05 | 0.00 | 25 | 1024.1 |
| 20260507192546 | 74 | 278 | 9.0 | 20.0 | 0.00 | 0.05 | 0.00 | 25 | 1024.3 |
| 20260507192240 | 73 | 325 | 10.0 | 20.0 | 0.00 | 0.05 | 0.00 | 25 | 1024.4 |
| 20260507191943 | 73 | 300 | 11.0 | 21.0 | 0.00 | 0.05 | 0.00 | 24 | 1024.4 |
| 20260507191637 | 74 | 301 | 11.0 | 21.0 | 0.00 | 0.05 | 0.00 | 25 | 1024.5 |
| 20260507191339 | 73 | 279 | 11.0 | 21.0 | 0.00 | 0.05 | 0.00 | 26 | 1024.4 |
| 20260507191036 | 73 | 265 | 12.0 | 21.0 | 0.00 | 0.05 | 0.00 | 25 | 1024.5 |
| 20260507190728 | 74 | 279 | 11.0 | 23.0 | 0.00 | 0.05 | 0.00 | 26 | 1024.5 |
| 20260507185959 | 73 | 268 | 11.0 | 23.0 | 0.00 | 0.05 | 0.00 | 27 | 1024.7 |
| 20260507185223 | 72 | 293 | 12.0 | 23.0 | 0.00 | 0.06 | 0.00 | 26 | 1024.9 |
| 20260507184915 | 72 | 252 | 11.0 | 20.0 | 0.00 | 0.06 | 0.00 | 27 | 1025.0 |
| 20260507184136 | 72 | 265 | 12.0 | 21.0 | 0.00 | 0.06 | 0.00 | 29 | 1025.0 |
| 20260507183826 | 72 | 266 | 12.0 | 21.0 | 0.00 | 0.06 | 0.00 | 28 | 1025.1 |
| 20260507183518 | 72 | 268 | 12.0 | 21.0 | 0.00 | 0.06 | 0.00 | 28 | 1025.1 |
| 20260507183216 | 72 | 270 | 12.0 | 21.0 | 0.00 | 0.06 | 0.00 | 29 | 1025.2 |
| 20260507182906 | 72 | 249 | 13.0 | 21.0 | 0.00 | 0.06 | 0.00 | 30 | 1025.3 |
| 20260507182609 | 71 | 271 | 13.0 | 21.0 | 0.00 | 0.06 | 0.00 | 30 | 1025.4 |
| 20260507182311 | 71 | 270 | 13.0 | 22.0 | 0.00 | 0.07 | 0.00 | 29 | 1025.4 |
| 20260507182009 | 70 | 267 | 14.0 | 22.0 | 0.00 | 0.07 | 0.00 | 29 | 1025.5 |
| 20260507181706 | 70 | 268 | 15.0 | 22.0 | 0.00 | 0.07 | 0.00 | 29 | 1025.7 |
| 20260507180937 | 70 | 264 | 14.0 | 22.0 | 0.00 | 0.07 | 0.00 | 32 | 1025.7 |
| 20260507180633 | 70 | 265 | 14.0 | 22.0 | 0.00 | 0.07 | 0.00 | 31 | 1025.7 |
| 20260507180322 | 70 | 271 | 15.0 | 22.0 | 0.00 | 0.07 | 0.00 | 33 | 1025.8 |
| 20260507175544 | 69 | 264 | 15.0 | 23.0 | 0.00 | 0.07 | 0.00 | 32 | 1025.8 |
| 20260507175243 | 69 | 259 | 15.0 | 23.0 | 0.00 | 0.07 | 0.00 | 31 | 1025.9 |
| 20260507174939 | 69 | 269 | 15.0 | 23.0 | 0.00 | 0.07 | 0.00 | 33 | 1026.0 |
| 20260507174207 | 68 | 290 | 14.0 | 23.0 | 0.00 | 0.08 | 0.00 | 37 | 1026.1 |
| 20260507173453 | 69 | 275 | 13.0 | 21.0 | 0.00 | 0.09 | 0.00 | 38 | 1026.2 |
| 20260507173152 | 68 | 285 | 14.0 | 21.0 | 0.00 | 0.09 | 0.00 | 39 | 1026.2 |
| 20260507172842 | 68 | 267 | 15.0 | 21.0 | 0.00 | 0.09 | 0.00 | 40 | 1026.2 |
| 20260507172541 | 67 | 279 | 15.0 | 21.0 | 0.00 | 0.09 | 0.00 | 40 | 1026.3 |
| 20260507172241 | 67 | 279 | 14.0 | 21.0 | 0.00 | 0.10 | 0.00 | 36 | 1026.3 |
| 20260507171928 | 67 | 279 | 13.0 | 20.0 | 0.00 | 0.10 | 0.00 | 43 | 1026.4 |
| 20260507171623 | 67 | 277 | 12.0 | 20.0 | 0.00 | 0.11 | 0.00 | 44 | 1026.4 |
| 20260507171326 | 67 | 288 | 13.0 | 20.0 | 0.00 | 0.11 | 0.00 | 42 | 1026.5 |
| 20260507171019 | 66 | 267 | 13.0 | 19.0 | 0.00 | 0.11 | 0.00 | 44 | 1026.6 |
| 20260507170721 | 66 | 282 | 14.0 | 22.0 | 0.00 | 0.12 | 0.00 | 47 | 1026.6 |
| 20260507170416 | 65 | 277 | 14.0 | 22.0 | 0.00 | 0.12 | 0.00 | 48 | 1026.6 |
| 20260507170109 | 65 | 266 | 13.0 | 22.0 | 0.00 | 0.13 | 0.00 | 49 | 1026.6 |
| 20260507165803 | 65 | 265 | 13.0 | 22.0 | 0.00 | 0.13 | 0.00 | 46 | 1026.6 |
| 20260507165032 | 64 | 271 | 14.0 | 22.0 | 0.00 | 0.15 | 0.00 | 49 | 1026.7 |
| 20260507164312 | 63 | 277 | 13.0 | 19.0 | 0.00 | 0.17 | 0.00 | 52 | 1026.9 |
| 20260507164004 | 63 | 281 | 13.0 | 19.0 | 0.00 | 0.17 | 0.00 | 53 | 1027.0 |
| 20260507163702 | 63 | 279 | 13.0 | 19.0 | 0.00 | 0.18 | 0.00 | 55 | 1026.9 |
| 20260507163400 | 63 | 281 | 12.0 | 21.0 | 0.00 | 0.18 | 0.00 | 58 | 1027.0 |
| 20260507163053 | 62 | 283 | 13.0 | 21.0 | 0.00 | 0.19 | 0.00 | 55 | 1026.9 |
| 20260507162743 | 62 | 271 | 13.0 | 21.0 | 0.00 | 0.19 | 0.00 | 56 | 1027.0 |
| 20260507162436 | 61 | 287 | 14.0 | 21.0 | 0.00 | 0.20 | 0.00 | 57 | 1027.0 |
| 20260507162123 | 61 | 264 | 14.0 | 21.0 | 0.00 | 0.20 | 0.00 | 56 | 1027.0 |
| 20260507161811 | 60 | 264 | 14.0 | 21.0 | 0.00 | 0.20 | 0.00 | 59 | 1027.0 |
| 20260507161512 | 60 | 275 | 14.0 | 20.0 | 0.00 | 0.21 | 0.00 | 60 | 1027.1 |
| 20260507161158 | 60 | 265 | 13.0 | 20.0 | 0.00 | 0.21 | 0.00 | 59 | 1027.1 |
| 20260507160852 | 60 | 265 | 13.0 | 20.0 | 0.00 | 0.22 | 0.00 | 60 | 1027.2 |
| 20260507160539 | 60 | 261 | 13.0 | 20.0 | 0.00 | 0.22 | 0.00 | 60 | 1027.2 |
| 20260507160227 | 59 | 279 | 13.0 | 20.0 | 0.00 | 0.22 | 0.00 | 60 | 1027.3 |
| 20260507155454 | 58 | 273 | 14.0 | 20.0 | 0.00 | 0.23 | 0.00 | 62 | 1027.4 |
| 20260507155152 | 58 | 280 | 14.0 | 20.0 | 0.00 | 0.23 | 0.00 | 60 | 1027.5 |
| 20260507154855 | 57 | 276 | 13.0 | 19.0 | 0.00 | 0.24 | 0.00 | 64 | 1027.4 |
| 20260507154544 | 57 | 283 | 14.0 | 21.0 | 0.00 | 0.25 | 0.00 | 63 | 1027.5 |
| 20260507154233 | 56 | 287 | 14.0 | 21.0 | 0.00 | 0.25 | 0.00 | 66 | 1027.6 |
| 20260507153923 | 56 | 275 | 15.0 | 21.0 | 0.00 | 0.26 | 0.00 | 64 | 1027.7 |
| 20260507153623 | 55 | 281 | 15.0 | 21.0 | 0.00 | 0.26 | 0.00 | 66 | 1027.8 |
| 20260507153320 | 55 | 273 | 14.0 | 21.0 | 0.00 | 0.27 | 0.00 | 67 | 1027.8 |
| 20260507152558 | 54 | 266 | 13.0 | 20.0 | 0.00 | 0.28 | 0.00 | 68 | 1027.9 |
| 20260507152250 | 54 | 274 | 13.0 | 21.0 | 0.00 | 0.29 | 0.00 | 70 | 1027.9 |
| 20260507151945 | 53 | 282 | 13.0 | 21.0 | 0.00 | 0.29 | 0.00 | 69 | 1027.9 |
| 20260507151215 | 52 | 280 | 14.0 | 21.0 | 0.00 | 0.30 | 0.00 | 72 | 1028.0 |
| 20260507150906 | 52 | 276 | 14.0 | 21.0 | 0.00 | 0.30 | 0.00 | 72 | 1028.2 |
| 20260507150606 | 51 | 273 | 14.0 | 21.0 | 0.00 | 0.31 | 0.00 | 71 | 1028.1 |
| 20260507150304 | 51 | 275 | 13.0 | 24.0 | 0.00 | 0.31 | 0.00 | 72 | 1028.1 |
| 20260507150008 | 51 | 279 | 14.0 | 24.0 | 0.00 | 0.31 | 0.00 | 74 | 1028.2 |
| 20260507145705 | 51 | 286 | 15.0 | 24.0 | 0.00 | 0.31 | 0.00 | 74 | 1028.2 |
| 20260507145400 | 50 | 278 | 15.0 | 24.0 | 0.00 | 0.31 | 0.00 | 75 | 1028.2 |
| 20260507145059 | 50 | 275 | 15.0 | 24.0 | 0.00 | 0.31 | 0.00 | 75 | 1028.2 |
| 20260507144800 | 50 | 278 | 15.0 | 24.0 | 0.00 | 0.31 | 0.00 | 75 | 1028.3 |
| 20260507144447 | 49 | 285 | 15.0 | 24.0 | 0.00 | 0.31 | 0.00 | 76 | 1028.3 |
| 20260507143301 | 48 | 275 | 16.0 | 23.0 | 0.00 | 0.31 | 0.00 | 78 | 1028.3 |
| 20260507142959 | 47 | 281 | 16.0 | 23.0 | 0.00 | 0.31 | 0.00 | 78 | 1028.3 |
| 20260507142647 | 47 | 286 | 16.0 | 23.0 | 0.00 | 0.31 | 0.00 | 78 | 1028.4 |
| 20260507142336 | 47 | 286 | 14.0 | 23.0 | 0.00 | 0.31 | 0.00 | 80 | 1028.4 |
| 20260507142031 | 47 | 271 | 15.0 | 23.0 | 0.00 | 0.31 | 0.00 | 79 | 1028.3 |
| 20260507141304 | 46 | 284 | 15.0 | 21.0 | 0.00 | 0.31 | 0.00 | 81 | 1028.4 |
| 20260507140540 | 45 | 276 | 14.0 | 21.0 | 0.00 | 0.31 | 0.00 | 83 | 1028.5 |
| 20260507135828 | 44 | 279 | 12.0 | 21.0 | 0.00 | 0.31 | 0.00 | 83 | 1028.5 |
| 20260507135521 | 44 | 279 | 13.0 | 21.0 | 0.00 | 0.31 | 0.00 | 85 | 1028.6 |
| 20260507135213 | 44 | 281 | 14.0 | 21.0 | 0.00 | 0.31 | 0.00 | 85 | 1028.5 |
| 20260507134912 | 43 | 287 | 14.0 | 21.0 | 0.00 | 0.31 | 0.00 | 84 | 1028.6 |
| 20260507134603 | 43 | 278 | 13.0 | 20.0 | 0.00 | 0.31 | 0.00 | 85 | 1028.6 |
| 20260507134301 | 43 | 273 | 13.0 | 19.0 | 0.00 | 0.31 | 0.00 | 85 | 1028.6 |
| 20260507133954 | 42 | 273 | 13.0 | 19.0 | 0.00 | 0.31 | 0.00 | 85 | 1028.6 |
| 20260507133644 | 42 | 275 | 13.0 | 20.0 | 0.00 | 0.31 | 0.00 | 86 | 1028.5 |
| 20260507133344 | 42 | 276 | 13.0 | 20.0 | 0.00 | 0.31 | 0.00 | 86 | 1028.6 |
| 20260507132608 | 41 | 272 | 13.0 | 20.0 | 0.00 | 0.31 | 0.00 | 87 | 1028.6 |
| 20260507130959 | 39 | 266 | 12.0 | 17.0 | 0.00 | 0.31 | 0.00 | 88 | 1028.6 |
| 20260507130650 | 39 | 268 | 12.0 | 17.0 | 0.00 | 0.31 | 0.00 | 89 | 1028.6 |
| 20260507130348 | 39 | 263 | 11.0 | 17.0 | 0.00 | 0.31 | 0.00 | 89 | 1028.6 |
| 20260507130049 | 39 | 266 | 11.0 | 17.0 | 0.00 | 0.31 | 0.00 | 89 | 1028.6 |
| 20260507125752 | 39 | 265 | 11.0 | 17.0 | 0.00 | 0.31 | 0.00 | 89 | 1028.6 |
| 20260507125449 | 38 | 266 | 11.0 | 17.0 | 0.00 | 0.31 | 0.00 | 89 | 1028.6 |
| 20260507124254 | 37 | 271 | 11.0 | 18.0 | 0.00 | 0.31 | 0.00 | 89 | 1028.6 |
| 20260507123948 | 37 | 272 | 11.0 | 18.0 | 0.00 | 0.31 | 0.00 | 89 | 1028.6 |
| 20260507123635 | 37 | 269 | 10.0 | 18.0 | 0.00 | 0.31 | 0.00 | 89 | 1028.6 |
| 20260507123322 | 37 | 268 | 10.0 | 15.0 | 0.00 | 0.31 | 0.00 | 89 | 1028.6 |
| 20260507123011 | 36 | 267 | 11.0 | 15.0 | 0.00 | 0.31 | 0.00 | 89 | 1028.7 |
| 20260507122701 | 36 | 265 | 10.0 | 15.0 | 0.00 | 0.31 | 0.00 | 89 | 1028.6 |
| 20260507122349 | 36 | 265 | 10.0 | 15.0 | 0.00 | 0.31 | 0.00 | 89 | 1028.6 |
| 20260507122049 | 36 | 267 | 10.0 | 15.0 | 0.00 | 0.31 | 0.00 | 89 | 1028.7 |
| 20260507121753 | 36 | 267 | 11.0 | 15.0 | 0.00 | 0.31 | 0.00 | 89 | 1028.7 |
| 20260507121442 | 36 | 269 | 11.0 | 15.0 | 0.00 | 0.31 | 0.00 | 89 | 1028.6 |
| 20260507121138 | 36 | 269 | 11.0 | 17.0 | 0.00 | 0.31 | 0.00 | 89 | 1028.5 |
| 20260507120831 | 36 | 273 | 11.0 | 17.0 | 0.00 | 0.31 | 0.00 | 89 | 1028.5 |
| 20260507120528 | 36 | 273 | 11.0 | 17.0 | 0.00 | 0.31 | 0.00 | 89 | 1028.4 |
| 20260507115815 | 36 | 274 | 11.0 | 18.0 | 0.00 | 0.31 | 0.00 | 89 | 1028.7 |
| 20260507115508 | 36 | 275 | 11.0 | 18.0 | 0.00 | 0.31 | 0.00 | 89 | 1028.7 |
| 20260507114301 | 36 | 274 | 12.0 | 18.0 | 0.00 | 0.31 | 0.00 | 89 | 1028.8 |
| 20260507114002 | 36 | 276 | 11.0 | 17.0 | 0.00 | 0.31 | 0.00 | 89 | 1028.8 |
| 20260507113655 | 36 | 275 | 11.0 | 17.0 | 0.00 | 0.31 | 0.00 | 90 | 1028.8 |
| 20260507113353 | 36 | 274 | 11.0 | 17.0 | 0.00 | 0.31 | 0.00 | 90 | 1029.0 |
| 20260507113047 | 36 | 275 | 11.0 | 17.0 | 0.00 | 0.31 | 0.00 | 90 | 1028.9 |
| 20260507112747 | 36 | 273 | 10.0 | 17.0 | 0.00 | 0.31 | 0.00 | 90 | 1028.9 |
| 20260507112444 | 35 | 273 | 10.0 | 17.0 | 0.00 | 0.31 | 0.00 | 90 | 1028.8 |
| 20260507112143 | 35 | 273 | 10.0 | 14.0 | 0.00 | 0.31 | 0.00 | 90 | 1028.9 |
| 20260507111830 | 35 | 272 | 10.0 | 14.0 | 0.00 | 0.31 | 0.00 | 91 | 1028.9 |
| 20260507111525 | 35 | 272 | 9.0 | 14.0 | 0.00 | 0.31 | 0.00 | 91 | 1028.8 |
| 20260507111220 | 35 | 271 | 9.0 | 14.0 | 0.00 | 0.31 | 0.00 | 91 | 1028.9 |
| 20260507110054 | 35 | 271 | 8.0 | 14.0 | 0.00 | 0.31 | 0.00 | 91 | 1029.1 |
| 20260507105331 | 35 | 271 | 9.0 | 14.0 | 0.00 | 0.31 | 0.00 | 91 | 1029.1 |
| 20260507104608 | 35 | 277 | 8.0 | 13.0 | 0.00 | 0.31 | 0.00 | 91 | 1029.4 |
| 20260507104301 | 35 | 277 | 8.0 | 13.0 | 0.00 | 0.31 | 0.00 | 91 | 1029.5 |
| 20260507103540 | 35 | 279 | 9.0 | 13.0 | 0.00 | 0.31 | 0.00 | 92 | 1029.6 |
| 20260507103233 | 35 | 279 | 9.0 | 13.0 | 0.00 | 0.31 | 0.00 | 92 | 1029.6 |
| 20260507102931 | 35 | 279 | 8.0 | 12.0 | 0.00 | 0.31 | 0.00 | 92 | 1029.7 |
| 20260507102629 | 35 | 279 | 8.0 | 13.0 | 0.00 | 0.31 | 0.00 | 92 | 1029.6 |
| 20260507102331 | 35 | 279 | 8.0 | 13.0 | 0.00 | 0.31 | 0.00 | 92 | 1029.6 |
| 20260507102031 | 35 | 279 | 8.0 | 13.0 | 0.00 | 0.31 | 0.00 | 92 | 1029.6 |
| 20260507101726 | 35 | 279 | 9.0 | 13.0 | 0.00 | 0.31 | 0.00 | 92 | 1029.7 |
| 20260507101418 | 35 | 280 | 9.0 | 13.0 | 0.00 | 0.31 | 0.00 | 92 | 1029.7 |
| 20260507101112 | 35 | 281 | 9.0 | 13.0 | 0.00 | 0.31 | 0.00 | 92 | 1029.7 |
| 20260507100805 | 35 | 284 | 8.0 | 13.0 | 0.00 | 0.31 | 0.00 | 92 | 1029.9 |
| 20260507100455 | 35 | 286 | 8.0 | 12.0 | 0.00 | 0.31 | 0.00 | 92 | 1029.9 |
| 20260507095258 | 34 | 289 | 8.0 | 12.0 | 0.00 | 0.31 | 0.00 | 93 | 1030.0 |
| 20260507094543 | 34 | 291 | 8.0 | 12.0 | 0.00 | 0.32 | 0.00 | 93 | 1030.0 |
| 20260507094243 | 34 | 292 | 8.0 | 12.0 | 0.00 | 0.32 | 0.00 | 93 | 1030.0 |
| 20260507093936 | 34 | 294 | 8.0 | 11.0 | 0.00 | 0.32 | 0.00 | 93 | 1030.0 |
| 20260507093633 | 34 | 296 | 8.0 | 11.0 | 0.00 | 0.33 | 0.00 | 93 | 1030.2 |
| 20260507093322 | 34 | 299 | 7.0 | 11.0 | 0.00 | 0.33 | 0.00 | 93 | 1030.1 |
| 20260507092557 | 34 | 306 | 7.0 | 11.0 | 0.00 | 0.33 | 0.00 | 93 | 1030.2 |
| 20260507092254 | 34 | 306 | 7.0 | 11.0 | 0.00 | 0.33 | 0.00 | 93 | 1030.3 |
| 20260507091957 | 34 | 309 | 7.0 | 11.0 | 0.00 | 0.33 | 0.00 | 93 | 1030.2 |
| 20260507091646 | 34 | 311 | 7.0 | 11.0 | 0.00 | 0.33 | 0.00 | 93 | 1030.2 |
| 20260507090917 | 34 | 313 | 7.0 | 11.0 | 0.00 | 0.33 | 0.00 | 93 | 1030.3 |
| 20260507090611 | 34 | 315 | 7.0 | 11.0 | 0.00 | 0.33 | 0.00 | 94 | 1030.4 |
| 20260507090257 | 34 | 319 | 7.0 | 11.0 | 0.00 | 0.33 | 0.00 | 94 | 1030.5 |
| 20260507085948 | 34 | 324 | 7.0 | 11.0 | 0.00 | 0.33 | 0.00 | 94 | 1030.6 |
| 20260507085637 | 34 | 328 | 7.0 | 13.0 | 0.00 | 0.34 | 0.00 | 94 | 1030.6 |
| 20260507084921 | 33 | 346 | 8.0 | 13.0 | 0.00 | 0.34 | 0.00 | 94 | 1030.6 |
| 20260507084622 | 33 | 355 | 8.0 | 13.0 | 0.00 | 0.34 | 0.00 | 93 | 1030.7 |
| 20260507084321 | 33 | 0 | 7.0 | 13.0 | 0.00 | 0.34 | 0.00 | 94 | 1030.7 |
| 20260507084016 | 33 | 59 | 7.0 | 13.0 | 0.00 | 0.34 | 0.00 | 94 | 1030.8 |
| 20260507083259 | 33 | 70 | 6.0 | 9.0 | 0.00 | 0.34 | 0.00 | 94 | 1030.7 |
| 20260507082954 | 33 | 71 | 6.0 | 9.0 | 0.00 | 0.34 | 0.00 | 94 | 1030.9 |
| 20260507082641 | 33 | 71 | 6.0 | 9.0 | 0.00 | 0.34 | 0.00 | 93 | 1030.9 |
| 20260507082338 | 33 | 71 | 6.0 | 9.0 | 0.00 | 0.34 | 0.00 | 93 | 1031.0 |
| 20260507082025 | 33 | 71 | 6.0 | 9.0 | 0.00 | 0.34 | 0.00 | 93 | 1031.0 |
| 20260507081301 | 33 | 71 | 5.0 | 8.0 | 0.00 | 0.35 | 0.00 | 93 | 1031.2 |
| 20260507080957 | 33 | 71 | 5.0 | 8.0 | 0.00 | 0.35 | 0.00 | 93 | 1031.2 |
| 20260507080654 | 33 | 71 | 5.0 | 8.0 | 0.00 | 0.35 | 0.00 | 93 | 1031.3 |
| 20260507080357 | 33 | 71 | 6.0 | 9.0 | 0.00 | 0.35 | 0.00 | 93 | 1031.3 |
| 20260507080050 | 33 | 71 | 6.0 | 9.0 | 0.00 | 0.35 | 0.00 | 93 | 1031.4 |
| 20260507075752 | 33 | 71 | 6.0 | 9.0 | 0.00 | 0.35 | 0.00 | 93 | 1031.3 |
| 20260507075445 | 33 | 71 | 6.0 | 9.0 | 0.00 | 0.35 | 0.00 | 94 | 1031.5 |
| 20260507075133 | 33 | 71 | 5.0 | 9.0 | 0.00 | 0.35 | 0.00 | 94 | 1031.5 |
| 20260507074827 | 33 | 71 | 5.0 | 9.0 | 0.00 | 0.36 | 0.00 | 94 | 1031.6 |
| 20260507074521 | 33 | 71 | 6.0 | 9.0 | 0.00 | 0.36 | 0.00 | 93 | 1031.7 |
| 20260507074214 | 33 | 71 | 5.0 | 8.0 | 0.00 | 0.36 | 0.00 | 93 | 1031.7 |
| 20260507073902 | 33 | 71 | 5.0 | 8.0 | 0.00 | 0.36 | 0.00 | 93 | 1031.6 |
| 20260507073553 | 33 | 71 | 5.0 | 8.0 | 0.00 | 0.36 | 0.00 | 93 | 1031.6 |
| 20260507073243 | 33 | 71 | 5.0 | 8.0 | 0.00 | 0.36 | 0.00 | 94 | 1031.6 |
| 20260507072943 | 33 | 71 | 5.0 | 8.0 | 0.00 | 0.36 | 0.00 | 93 | 1031.8 |
| 20260507072633 | 33 | 71 | 5.0 | 7.0 | 0.00 | 0.36 | 0.00 | 94 | 1031.8 |
| 20260507072324 | 33 | 71 | 5.0 | 7.0 | 0.00 | 0.36 | 0.00 | 94 | 1031.8 |
| 20260507071601 | 33 | 71 | 4.0 | 7.0 | 0.00 | 0.36 | 0.00 | 94 | 1031.9 |
| 20260507071301 | 32 | 71 | 4.0 | 6.0 | 0.00 | 0.36 | 0.00 | 93 | 1031.9 |
| 20260507070958 | 32 | 71 | 4.0 | 6.0 | 0.00 | 0.36 | 0.00 | 93 | 1031.9 |
| 20260507070653 | 32 | 71 | 4.0 | 6.0 | 0.00 | 0.36 | 0.00 | 93 | 1032.0 |
| 20260507070348 | 32 | 71 | 4.0 | 6.0 | 0.00 | 0.36 | 0.00 | 93 | 1032.0 |
| 20260507070052 | 32 | 71 | 4.0 | 6.0 | 0.00 | 0.36 | 0.00 | 93 | 1032.0 |
| 20260507065739 | 32 | 71 | 4.0 | 6.0 | 0.00 | 0.36 | 0.00 | 93 | 1032.0 |
| 20260507065434 | 32 | 71 | 4.0 | 6.0 | 0.00 | 0.36 | 0.00 | 93 | 1032.1 |
| 20260507065138 | 32 | 71 | 4.0 | 6.0 | 0.00 | 0.37 | 0.00 | 93 | 1032.1 |
| 20260507064838 | 32 | 71 | 3.0 | 6.0 | 0.00 | 0.37 | 0.00 | 93 | 1032.1 |
| 20260507064536 | 32 | 71 | 3.0 | 6.0 | 0.00 | 0.37 | 0.00 | 93 | 1032.3 |
| 20260507064223 | 32 | 71 | 4.0 | 6.0 | 0.00 | 0.37 | 0.00 | 93 | 1032.2 |